Location: Artiguedieu
(43.5000°N, 0.5454°E)
Time: 20:33:39
(UTC+00:00)

Explorer 7 - Pass Details

Date: 01 August 2021
Orbit: 484 x 676 km, 50.3° (Epoch: 18 September)

Event Time Altitude Azimuth Distance (km) Brightness Sun altitude
Rises 05:12:55 0° 239° (WSW) 2,544 9.5 3.4°
Reaches altitude 10° 05:15:02 10° 239° (WSW) 1,678 8.7 3.7°
Maximum altitude 05:18:50 89° 142° (SE) 508 6.8 4.4°
Drops below altitude 10° 05:22:48 10° 61° (ENE) 1,758 11.8 5.1°
Sets 05:25:05 0° 61° (ENE) 2,680 12.7 5.4°
